owner,sensor,date,latitude,longitude,vertical_datum,sea_water_practical_salinity,qcFlag 
WAVCIS,ioos:station:WAVCIS:CSI16:1,2012-02-01T00:00:00Z,29.4012,-89.0355,1.0,29.733,11111222 
WAVCIS,ioos:station:WAVCIS:CSI16:1,2012-02-01T00:15:00Z,29.4012,-89.0355,1.0,29.719,11111222 
WAVCIS,ioos:station:WAVCIS:CSI16:1,2012-02-01T00:30:00Z,29.4012,-89.0355,1.0,29.831,11111222 
WAVCIS,ioos:station:WAVCIS:CSI16:1,2012-02-01T00:45:00Z,29.4012,-89.0355,1.0,29.559,11111222 
WAVCIS,ioos:station:WAVCIS:CSI16:1,2012-02-01T01:00:00Z,29.4012,-89.0355,1.0,29.644,11111222 
WAVCIS,ioos:station:WAVCIS:CSI16:1,2012-02-01T01:15:00Z,29.4012,-89.0355,1.0,29.405,11111222 
WAVCIS,ioos:station:WAVCIS:CSI16:1,2012-02-01T01:30:00Z,29.4012,-89.0355,1.0,29.139,11111222 
WAVCIS,ioos:station:WAVCIS:CSI16:1,2012-02-01T01:45:00Z,29.4012,-89.0355,1.0,29.143,11111222 
WAVCIS,ioos:station:WAVCIS:CSI16:1,2012-02-01T02:00:00Z,29.4012,-89.0355,1.0,28.842,11111222 
WAVCIS,ioos:station:WAVCIS:CSI16:1,2012-02-01T02:15:00Z,29.4012,-89.0355,1.0,28.021,11111222 
WAVCIS,ioos:station:WAVCIS:CSI16:1,2012-02-01T02:30:00Z,29.4012,-89.0355,1.0,27.635,11111222 
WAVCIS,ioos:station:WAVCIS:CSI16:1,2012-02-01T02:45:00Z,29.4012,-89.0355,1.0,26.501,11111222 
WAVCIS,ioos:station:WAVCIS:CSI16:1,2012-02-01T03:00:00Z,29.4012,-89.0355,1.0,26.457,11111222 
WAVCIS,ioos:station:WAVCIS:CSI16:1,2012-02-01T03:15:00Z,29.4012,-89.0355,1.0,26.005,11111222 
WAVCIS,ioos:station:WAVCIS:CSI16:1,2012-02-01T03:30:00Z,29.4012,-89.0355,1.0,27.709,11111222 
WAVCIS,ioos:station:WAVCIS:CSI16:1,2012-02-01T03:45:00Z,29.4012,-89.0355,1.0,27.982,11111222 
WAVCIS,ioos:station:WAVCIS:CSI16:1,2012-02-01T04:00:00Z,29.4012,-89.0355,1.0,27.934,11111222 
WAVCIS,ioos:station:WAVCIS:CSI16:1,2012-02-01T04:15:00Z,29.4012,-89.0355,1.0,27.815,11111222 
WAVCIS,ioos:station:WAVCIS:CSI16:1,2012-02-01T04:30:00Z,29.4012,-89.0355,1.0,27.787,11111222 
WAVCIS,ioos:station:WAVCIS:CSI16:1,2012-02-01T04:45:00Z,29.4012,-89.0355,1.0,26.897,11111222 
WAVCIS,ioos:station:WAVCIS:CSI16:1,2012-02-01T05:00:00Z,29.4012,-89.0355,1.0,26.25,11111222 
WAVCIS,ioos:station:WAVCIS:CSI16:1,2012-02-01T05:15:00Z,29.4012,-89.0355,1.0,25.671,11111222 
WAVCIS,ioos:station:WAVCIS:CSI16:1,2012-02-01T05:30:00Z,29.4012,-89.0355,1.0,26.027,11111222 
WAVCIS,ioos:station:WAVCIS:CSI16:1,2012-02-01T05:45:00Z,29.4012,-89.0355,1.0,25.611,11111222 
WAVCIS,ioos:station:WAVCIS:CSI16:1,2012-02-01T06:00:00Z,29.4012,-89.0355,1.0,26.069,11111222 
WAVCIS,ioos:station:WAVCIS:CSI16:1,2012-02-01T06:15:00Z,29.4012,-89.0355,1.0,23.196,11111222 
WAVCIS,ioos:station:WAVCIS:CSI16:1,2012-02-01T06:30:00Z,29.4012,-89.0355,1.0,20.335,11111222 
WAVCIS,ioos:station:WAVCIS:CSI16:1,2012-02-01T06:45:00Z,29.4012,-89.0355,1.0,20.395,11111222 
WAVCIS,ioos:station:WAVCIS:CSI16:1,2012-02-01T07:00:00Z,29.4012,-89.0355,1.0,19.069,11111222 
WAVCIS,ioos:station:WAVCIS:CSI16:1,2012-02-01T07:15:00Z,29.4012,-89.0355,1.0,18.235,11111222 
WAVCIS,ioos:station:WAVCIS:CSI16:1,2012-02-01T07:30:00Z,29.4012,-89.0355,1.0,18.884,11111222 
WAVCIS,ioos:station:WAVCIS:CSI16:1,2012-02-01T07:45:00Z,29.4012,-89.0355,1.0,19.561,11111222 
WAVCIS,ioos:station:WAVCIS:CSI16:1,2012-02-01T08:00:00Z,29.4012,-89.0355,1.0,21.35,11111222 
WAVCIS,ioos:station:WAVCIS:CSI16:1,2012-02-01T08:15:00Z,29.4012,-89.0355,1.0,22.122,11111222 
WAVCIS,ioos:station:WAVCIS:CSI16:1,2012-02-01T08:30:00Z,29.4012,-89.0355,1.0,24.586,11111222 
WAVCIS,ioos:station:WAVCIS:CSI16:1,2012-02-01T08:45:00Z,29.4012,-89.0355,1.0,24.532,11111222 
WAVCIS,ioos:station:WAVCIS:CSI16:1,2012-02-01T09:00:00Z,29.4012,-89.0355,1.0,25.156,11111222 
WAVCIS,ioos:station:WAVCIS:CSI16:1,2012-02-01T09:15:00Z,29.4012,-89.0355,1.0,24.975,11111222 
WAVCIS,ioos:station:WAVCIS:CSI16:1,2012-02-01T09:30:00Z,29.4012,-89.0355,1.0,25.495,11111222 
WAVCIS,ioos:station:WAVCIS:CSI16:1,2012-02-01T09:45:00Z,29.4012,-89.0355,1.0,25.771,11111222 
WAVCIS,ioos:station:WAVCIS:CSI16:1,2012-02-01T10:00:00Z,29.4012,-89.0355,1.0,25.731,11111222 
WAVCIS,ioos:station:WAVCIS:CSI16:1,2012-02-01T10:15:00Z,29.4012,-89.0355,1.0,26.151,11111222 
WAVCIS,ioos:station:WAVCIS:CSI16:1,2012-02-01T10:30:00Z,29.4012,-89.0355,1.0,26.445,11111222 
WAVCIS,ioos:station:WAVCIS:CSI16:1,2012-02-01T10:45:00Z,29.4012,-89.0355,1.0,26.606,11111222 
WAVCIS,ioos:station:WAVCIS:CSI16:1,2012-02-01T11:00:00Z,29.4012,-89.0355,1.0,27.024,11111222 
WAVCIS,ioos:station:WAVCIS:CSI16:1,2012-02-01T11:15:00Z,29.4012,-89.0355,1.0,27.023,11111222 
WAVCIS,ioos:station:WAVCIS:CSI16:1,2012-02-01T11:30:00Z,29.4012,-89.0355,1.0,26.897,11111222 
WAVCIS,ioos:station:WAVCIS:CSI16:1,2012-02-01T11:45:00Z,29.4012,-89.0355,1.0,27.331,11111222 
WAVCIS,ioos:station:WAVCIS:CSI16:1,2012-02-01T12:00:00Z,29.4012,-89.0355,1.0,27.6,11111222 
WAVCIS,ioos:station:WAVCIS:CSI16:1,2012-02-01T12:15:00Z,29.4012,-89.0355,1.0,27.802,11111222 
WAVCIS,ioos:station:WAVCIS:CSI16:1,2012-02-01T12:30:00Z,29.4012,-89.0355,1.0,27.982,11111222 
WAVCIS,ioos:station:WAVCIS:CSI16:1,2012-02-01T12:45:00Z,29.4012,-89.0355,1.0,26.284,11111222 
WAVCIS,ioos:station:WAVCIS:CSI16:1,2012-02-01T13:00:00Z,29.4012,-89.0355,1.0,27.172,11111222 
WAVCIS,ioos:station:WAVCIS:CSI16:1,2012-02-01T13:15:00Z,29.4012,-89.0355,1.0,26.95,11111222 
WAVCIS,ioos:station:WAVCIS:CSI16:1,2012-02-01T13:30:00Z,29.4012,-89.0355,1.0,26.991,11111222 
WAVCIS,ioos:station:WAVCIS:CSI16:1,2012-02-01T13:45:00Z,29.4012,-89.0355,1.0,27.216,11111222 
WAVCIS,ioos:station:WAVCIS:CSI16:1,2012-02-01T14:00:00Z,29.4012,-89.0355,1.0,27.508,11111222 
WAVCIS,ioos:station:WAVCIS:CSI16:1,2012-02-01T14:15:00Z,29.4012,-89.0355,1.0,27.797,11111222 
WAVCIS,ioos:station:WAVCIS:CSI16:1,2012-02-01T14:30:00Z,29.4012,-89.0355,1.0,27.863,11111222 
WAVCIS,ioos:station:WAVCIS:CSI16:1,2012-02-01T14:45:00Z,29.4012,-89.0355,1.0,27.971,11111222 
WAVCIS,ioos:station:WAVCIS:CSI16:1,2012-02-01T15:00:00Z,29.4012,-89.0355,1.0,28.073,11111222 
WAVCIS,ioos:station:WAVCIS:CSI16:1,2012-02-01T15:15:00Z,29.4012,-89.0355,1.0,28.384,11111222 
WAVCIS,ioos:station:WAVCIS:CSI16:1,2012-02-01T15:30:00Z,29.4012,-89.0355,1.0,28.297,11111222 
WAVCIS,ioos:station:WAVCIS:CSI16:1,2012-02-01T15:45:00Z,29.4012,-89.0355,1.0,28.508,11111222 
WAVCIS,ioos:station:WAVCIS:CSI16:1,2012-02-01T16:00:00Z,29.4012,-89.0355,1.0,28.286,11111222 
WAVCIS,ioos:station:WAVCIS:CSI16:1,2012-02-01T16:15:00Z,29.4012,-89.0355,1.0,28.824,11111222 
WAVCIS,ioos:station:WAVCIS:CSI16:1,2012-02-01T16:30:00Z,29.4012,-89.0355,1.0,28.885,11111222 
WAVCIS,ioos:station:WAVCIS:CSI16:1,2012-02-01T16:45:00Z,29.4012,-89.0355,1.0,28.775,11111222 
WAVCIS,ioos:station:WAVCIS:CSI16:1,2012-02-01T17:00:00Z,29.4012,-89.0355,1.0,28.944,11111222 
WAVCIS,ioos:station:WAVCIS:CSI16:1,2012-02-01T17:15:00Z,29.4012,-89.0355,1.0,28.915,11111222 
WAVCIS,ioos:station:WAVCIS:CSI16:1,2012-02-01T17:30:00Z,29.4012,-89.0355,1.0,28.914,11111222 
WAVCIS,ioos:station:WAVCIS:CSI16:1,2012-02-01T17:45:00Z,29.4012,-89.0355,1.0,29.024,11111222 
WAVCIS,ioos:station:WAVCIS:CSI16:1,2012-02-01T18:00:00Z,29.4012,-89.0355,1.0,29.063,11111222 
WAVCIS,ioos:station:WAVCIS:CSI16:1,2012-02-01T18:15:00Z,29.4012,-89.0355,1.0,28.965,11111222 
WAVCIS,ioos:station:WAVCIS:CSI16:1,2012-02-01T18:30:00Z,29.4012,-89.0355,1.0,28.99,11111222 
WAVCIS,ioos:station:WAVCIS:CSI16:1,2012-02-01T18:45:00Z,29.4012,-89.0355,1.0,29.039,11111222 
WAVCIS,ioos:station:WAVCIS:CSI16:1,2012-02-01T19:00:00Z,29.4012,-89.0355,1.0,29.032,11111222 
WAVCIS,ioos:station:WAVCIS:CSI16:1,2012-02-01T19:15:00Z,29.4012,-89.0355,1.0,29.173,11111222 
WAVCIS,ioos:station:WAVCIS:CSI16:1,2012-02-01T19:30:00Z,29.4012,-89.0355,1.0,29.282,11111222 
WAVCIS,ioos:station:WAVCIS:CSI16:1,2012-02-01T19:45:00Z,29.4012,-89.0355,1.0,29.215,11111222 
WAVCIS,ioos:station:WAVCIS:CSI16:1,2012-02-01T20:00:00Z,29.4012,-89.0355,1.0,29.299,11111222 
WAVCIS,ioos:station:WAVCIS:CSI16:1,2012-02-01T20:15:00Z,29.4012,-89.0355,1.0,29.297,11111222 
WAVCIS,ioos:station:WAVCIS:CSI16:1,2012-02-01T20:30:00Z,29.4012,-89.0355,1.0,29.433,11111222 
WAVCIS,ioos:station:WAVCIS:CSI16:1,2012-02-01T20:45:00Z,29.4012,-89.0355,1.0,29.387,11111222 
WAVCIS,ioos:station:WAVCIS:CSI16:1,2012-02-01T21:00:00Z,29.4012,-89.0355,1.0,29.436,11111222 
WAVCIS,ioos:station:WAVCIS:CSI16:1,2012-02-01T21:15:00Z,29.4012,-89.0355,1.0,29.41,11111222 
WAVCIS,ioos:station:WAVCIS:CSI16:1,2012-02-01T21:30:00Z,29.4012,-89.0355,1.0,29.36,11111222 
WAVCIS,ioos:station:WAVCIS:CSI16:1,2012-02-01T21:45:00Z,29.4012,-89.0355,1.0,28.456,11111222 
WAVCIS,ioos:station:WAVCIS:CSI16:1,2012-02-01T22:00:00Z,29.4012,-89.0355,1.0,28.945,11111222 
WAVCIS,ioos:station:WAVCIS:CSI16:1,2012-02-01T22:15:00Z,29.4012,-89.0355,1.0,29.446,11111222 
WAVCIS,ioos:station:WAVCIS:CSI16:1,2012-02-01T22:30:00Z,29.4012,-89.0355,1.0,29.644,11111222 
WAVCIS,ioos:station:WAVCIS:CSI16:1,2012-02-01T22:45:00Z,29.4012,-89.0355,1.0,29.628,11111222 
WAVCIS,ioos:station:WAVCIS:CSI16:1,2012-02-01T23:00:00Z,29.4012,-89.0355,1.0,29.542,11111222 
WAVCIS,ioos:station:WAVCIS:CSI16:1,2012-02-01T23:15:00Z,29.4012,-89.0355,1.0,29.619,11111222 
WAVCIS,ioos:station:WAVCIS:CSI16:1,2012-02-01T23:30:00Z,29.4012,-89.0355,1.0,29.813,11111222 
WAVCIS,ioos:station:WAVCIS:CSI16:1,2012-02-01T23:45:00Z,29.4012,-89.0355,1.0,29.799,11111222 
WAVCIS,ioos:station:WAVCIS:CSI16:1,2012-02-02T00:00:00Z,29.4012,-89.0355,1.0,29.679,11111222 
WAVCIS,ioos:station:WAVCIS:CSI16:1,2012-02-02T00:15:00Z,29.4012,-89.0355,1.0,29.534,11111222 
WAVCIS,ioos:station:WAVCIS:CSI16:1,2012-02-02T00:30:00Z,29.4012,-89.0355,1.0,28.691,11111222 
WAVCIS,ioos:station:WAVCIS:CSI16:1,2012-02-02T00:45:00Z,29.4012,-89.0355,1.0,28.993,11111222 
WAVCIS,ioos:station:WAVCIS:CSI16:1,2012-02-02T01:00:00Z,29.4012,-89.0355,1.0,29.431,11111222 
WAVCIS,ioos:station:WAVCIS:CSI16:1,2012-02-02T01:15:00Z,29.4012,-89.0355,1.0,29.149,11111222 
WAVCIS,ioos:station:WAVCIS:CSI16:1,2012-02-02T01:30:00Z,29.4012,-89.0355,1.0,29.026,11111222 
WAVCIS,ioos:station:WAVCIS:CSI16:1,2012-02-02T01:45:00Z,29.4012,-89.0355,1.0,26.906,11111222 
WAVCIS,ioos:station:WAVCIS:CSI16:1,2012-02-02T02:00:00Z,29.4012,-89.0355,1.0,26.227,11111222 
WAVCIS,ioos:station:WAVCIS:CSI16:1,2012-02-02T02:15:00Z,29.4012,-89.0355,1.0,25.839,11111222 
WAVCIS,ioos:station:WAVCIS:CSI16:1,2012-02-02T02:30:00Z,29.4012,-89.0355,1.0,26.636,11111222 
WAVCIS,ioos:station:WAVCIS:CSI16:1,2012-02-02T02:45:00Z,29.4012,-89.0355,1.0,27.471,11111222 
WAVCIS,ioos:station:WAVCIS:CSI16:1,2012-02-02T03:00:00Z,29.4012,-89.0355,1.0,26.012,11111222 
WAVCIS,ioos:station:WAVCIS:CSI16:1,2012-02-02T03:15:00Z,29.4012,-89.0355,1.0,24.725,11111222 
WAVCIS,ioos:station:WAVCIS:CSI16:1,2012-02-02T03:30:00Z,29.4012,-89.0355,1.0,27.325,11111222 
WAVCIS,ioos:station:WAVCIS:CSI16:1,2012-02-02T03:45:00Z,29.4012,-89.0355,1.0,26.106,11111222 
WAVCIS,ioos:station:WAVCIS:CSI16:1,2012-02-02T04:00:00Z,29.4012,-89.0355,1.0,25.87,11111222 
WAVCIS,ioos:station:WAVCIS:CSI16:1,2012-02-02T04:15:00Z,29.4012,-89.0355,1.0,24.979,11111222 
WAVCIS,ioos:station:WAVCIS:CSI16:1,2012-02-02T04:30:00Z,29.4012,-89.0355,1.0,25.417,11111222 
WAVCIS,ioos:station:WAVCIS:CSI16:1,2012-02-02T04:45:00Z,29.4012,-89.0355,1.0,25.198,11111222 
WAVCIS,ioos:station:WAVCIS:CSI16:1,2012-02-02T05:00:00Z,29.4012,-89.0355,1.0,23.941,11111222 
WAVCIS,ioos:station:WAVCIS:CSI16:1,2012-02-02T05:15:00Z,29.4012,-89.0355,1.0,26.386,11111222 
WAVCIS,ioos:station:WAVCIS:CSI16:1,2012-02-02T05:30:00Z,29.4012,-89.0355,1.0,25.313,11111222 
WAVCIS,ioos:station:WAVCIS:CSI16:1,2012-02-02T05:45:00Z,29.4012,-89.0355,1.0,25.759,11111222 
WAVCIS,ioos:station:WAVCIS:CSI16:1,2012-02-02T06:00:00Z,29.4012,-89.0355,1.0,25.782,11111222 
WAVCIS,ioos:station:WAVCIS:CSI16:1,2012-02-02T06:15:00Z,29.4012,-89.0355,1.0,26.161,11111222 
WAVCIS,ioos:station:WAVCIS:CSI16:1,2012-02-02T06:30:00Z,29.4012,-89.0355,1.0,25.936,11111222 
WAVCIS,ioos:station:WAVCIS:CSI16:1,2012-02-02T06:45:00Z,29.4012,-89.0355,1.0,25.337,11111222 
WAVCIS,ioos:station:WAVCIS:CSI16:1,2012-02-02T07:00:00Z,29.4012,-89.0355,1.0,26.028,11111222 
WAVCIS,ioos:station:WAVCIS:CSI16:1,2012-02-02T07:15:00Z,29.4012,-89.0355,1.0,25.864,11111222 
WAVCIS,ioos:station:WAVCIS:CSI16:1,2012-02-02T07:30:00Z,29.4012,-89.0355,1.0,26.016,11111222 
WAVCIS,ioos:station:WAVCIS:CSI16:1,2012-02-02T07:45:00Z,29.4012,-89.0355,1.0,25.443,11111222 
WAVCIS,ioos:station:WAVCIS:CSI16:1,2012-02-02T08:00:00Z,29.4012,-89.0355,1.0,26.18,11111222 
WAVCIS,ioos:station:WAVCIS:CSI16:1,2012-02-02T08:15:00Z,29.4012,-89.0355,1.0,26.408,11111222 
WAVCIS,ioos:station:WAVCIS:CSI16:1,2012-02-02T08:30:00Z,29.4012,-89.0355,1.0,26.52,11111222 
WAVCIS,ioos:station:WAVCIS:CSI16:1,2012-02-02T08:45:00Z,29.4012,-89.0355,1.0,26.054,11111222 
WAVCIS,ioos:station:WAVCIS:CSI16:1,2012-02-02T09:00:00Z,29.4012,-89.0355,1.0,25.668,11111222 
WAVCIS,ioos:station:WAVCIS:CSI16:1,2012-02-02T09:15:00Z,29.4012,-89.0355,1.0,24.973,11111222 
WAVCIS,ioos:station:WAVCIS:CSI16:1,2012-02-02T09:30:00Z,29.4012,-89.0355,1.0,25.345,11111222 
WAVCIS,ioos:station:WAVCIS:CSI16:1,2012-02-02T09:45:00Z,29.4012,-89.0355,1.0,25.424,11111222 
WAVCIS,ioos:station:WAVCIS:CSI16:1,2012-02-02T10:00:00Z,29.4012,-89.0355,1.0,24.916,11111222 
WAVCIS,ioos:station:WAVCIS:CSI16:1,2012-02-02T10:15:00Z,29.4012,-89.0355,1.0,24.713,11111222 
WAVCIS,ioos:station:WAVCIS:CSI16:1,2012-02-02T10:30:00Z,29.4012,-89.0355,1.0,25.007,11111222 
WAVCIS,ioos:station:WAVCIS:CSI16:1,2012-02-02T10:45:00Z,29.4012,-89.0355,1.0,25.395,11111222 
WAVCIS,ioos:station:WAVCIS:CSI16:1,2012-02-02T11:00:00Z,29.4012,-89.0355,1.0,25.763,11111222 
WAVCIS,ioos:station:WAVCIS:CSI16:1,2012-02-02T11:15:00Z,29.4012,-89.0355,1.0,25.91,11111222 
WAVCIS,ioos:station:WAVCIS:CSI16:1,2012-02-02T11:30:00Z,29.4012,-89.0355,1.0,25.718,11111222 
WAVCIS,ioos:station:WAVCIS:CSI16:1,2012-02-02T11:45:00Z,29.4012,-89.0355,1.0,25.935,11111222 
WAVCIS,ioos:station:WAVCIS:CSI16:1,2012-02-02T12:00:00Z,29.4012,-89.0355,1.0,25.839,11111222 
WAVCIS,ioos:station:WAVCIS:CSI16:1,2012-02-02T12:15:00Z,29.4012,-89.0355,1.0,25.562,11111222 
WAVCIS,ioos:station:WAVCIS:CSI16:1,2012-02-02T12:30:00Z,29.4012,-89.0355,1.0,26.13,11111222 
WAVCIS,ioos:station:WAVCIS:CSI16:1,2012-02-02T12:45:00Z,29.4012,-89.0355,1.0,26.315,11111222 
WAVCIS,ioos:station:WAVCIS:CSI16:1,2012-02-02T13:00:00Z,29.4012,-89.0355,1.0,26.145,11111222 
WAVCIS,ioos:station:WAVCIS:CSI16:1,2012-02-02T13:15:00Z,29.4012,-89.0355,1.0,24.532,11111222 
WAVCIS,ioos:station:WAVCIS:CSI16:1,2012-02-02T13:30:00Z,29.4012,-89.0355,1.0,26.144,11111222 
WAVCIS,ioos:station:WAVCIS:CSI16:1,2012-02-02T13:45:00Z,29.4012,-89.0355,1.0,26.048,11111222 
WAVCIS,ioos:station:WAVCIS:CSI16:1,2012-02-02T14:00:00Z,29.4012,-89.0355,1.0,25.718,11111222 
WAVCIS,ioos:station:WAVCIS:CSI16:1,2012-02-02T14:15:00Z,29.4012,-89.0355,1.0,26.065,11111222 
WAVCIS,ioos:station:WAVCIS:CSI16:1,2012-02-02T14:30:00Z,29.4012,-89.0355,1.0,26.498,11111222 
WAVCIS,ioos:station:WAVCIS:CSI16:1,2012-02-02T14:45:00Z,29.4012,-89.0355,1.0,26.671,11111222 
WAVCIS,ioos:station:WAVCIS:CSI16:1,2012-02-02T15:00:00Z,29.4012,-89.0355,1.0,27.43,11111222 
WAVCIS,ioos:station:WAVCIS:CSI16:1,2012-02-02T15:15:00Z,29.4012,-89.0355,1.0,28.021,11111222 
WAVCIS,ioos:station:WAVCIS:CSI16:1,2012-02-02T15:30:00Z,29.4012,-89.0355,1.0,27.715,11111222 
WAVCIS,ioos:station:WAVCIS:CSI16:1,2012-02-02T15:45:00Z,29.4012,-89.0355,1.0,27.815,11111222 
WAVCIS,ioos:station:WAVCIS:CSI16:1,2012-02-02T16:00:00Z,29.4012,-89.0355,1.0,27.982,11111222 
WAVCIS,ioos:station:WAVCIS:CSI16:1,2012-02-02T16:15:00Z,29.4012,-89.0355,1.0,28.375,11111222 
WAVCIS,ioos:station:WAVCIS:CSI16:1,2012-02-02T16:30:00Z,29.4012,-89.0355,1.0,28.27,11111222 
WAVCIS,ioos:station:WAVCIS:CSI16:1,2012-02-02T16:45:00Z,29.4012,-89.0355,1.0,28.14,11111222 
WAVCIS,ioos:station:WAVCIS:CSI16:1,2012-02-02T17:00:00Z,29.4012,-89.0355,1.0,27.914,11111222 
WAVCIS,ioos:station:WAVCIS:CSI16:1,2012-02-02T17:15:00Z,29.4012,-89.0355,1.0,27.495,11111222 
WAVCIS,ioos:station:WAVCIS:CSI16:1,2012-02-02T17:30:00Z,29.4012,-89.0355,1.0,27.516,11111222 
WAVCIS,ioos:station:WAVCIS:CSI16:1,2012-02-02T17:45:00Z,29.4012,-89.0355,1.0,27.761,11111222 
WAVCIS,ioos:station:WAVCIS:CSI16:1,2012-02-02T18:00:00Z,29.4012,-89.0355,1.0,27.871,11111222 
WAVCIS,ioos:station:WAVCIS:CSI16:1,2012-02-02T18:15:00Z,29.4012,-89.0355,1.0,27.448,11111222 
WAVCIS,ioos:station:WAVCIS:CSI16:1,2012-02-02T18:30:00Z,29.4012,-89.0355,1.0,27.283,11111222 
WAVCIS,ioos:station:WAVCIS:CSI16:1,2012-02-02T18:45:00Z,29.4012,-89.0355,1.0,28.507,11111222 
WAVCIS,ioos:station:WAVCIS:CSI16:1,2012-02-02T19:00:00Z,29.4012,-89.0355,1.0,28.352,11111222 
WAVCIS,ioos:station:WAVCIS:CSI16:1,2012-02-02T19:15:00Z,29.4012,-89.0355,1.0,28.693,11111222 
WAVCIS,ioos:station:WAVCIS:CSI16:1,2012-02-02T19:30:00Z,29.4012,-89.0355,1.0,28.309,11111222 
WAVCIS,ioos:station:WAVCIS:CSI16:1,2012-02-02T19:45:00Z,29.4012,-89.0355,1.0,27.802,11111222 
WAVCIS,ioos:station:WAVCIS:CSI16:1,2012-02-02T20:00:00Z,29.4012,-89.0355,1.0,27.941,11111222 
WAVCIS,ioos:station:WAVCIS:CSI16:1,2012-02-02T20:15:00Z,29.4012,-89.0355,1.0,28.914,11111222 
WAVCIS,ioos:station:WAVCIS:CSI16:1,2012-02-02T20:30:00Z,29.4012,-89.0355,1.0,28.497,11111222 
WAVCIS,ioos:station:WAVCIS:CSI16:1,2012-02-02T20:45:00Z,29.4012,-89.0355,1.0,28.468,11111222 
WAVCIS,ioos:station:WAVCIS:CSI16:1,2012-02-02T21:00:00Z,29.4012,-89.0355,1.0,28.713,11111222 
WAVCIS,ioos:station:WAVCIS:CSI16:1,2012-02-02T21:15:00Z,29.4012,-89.0355,1.0,28.637,11111222 
WAVCIS,ioos:station:WAVCIS:CSI16:1,2012-02-02T21:30:00Z,29.4012,-89.0355,1.0,28.913,11111222 
WAVCIS,ioos:station:WAVCIS:CSI16:1,2012-02-02T21:45:00Z,29.4012,-89.0355,1.0,29.169,11111222 
WAVCIS,ioos:station:WAVCIS:CSI16:1,2012-02-02T22:00:00Z,29.4012,-89.0355,1.0,29.341,11111222 
WAVCIS,ioos:station:WAVCIS:CSI16:1,2012-02-02T22:15:00Z,29.4012,-89.0355,1.0,29.524,11111222 
WAVCIS,ioos:station:WAVCIS:CSI16:1,2012-02-02T22:30:00Z,29.4012,-89.0355,1.0,29.667,11111222 
WAVCIS,ioos:station:WAVCIS:CSI16:1,2012-02-02T22:45:00Z,29.4012,-89.0355,1.0,29.918,11111222 
WAVCIS,ioos:station:WAVCIS:CSI16:1,2012-02-02T23:00:00Z,29.4012,-89.0355,1.0,30.028,11111222 
WAVCIS,ioos:station:WAVCIS:CSI16:1,2012-02-02T23:15:00Z,29.4012,-89.0355,1.0,30.095,11111222 
WAVCIS,ioos:station:WAVCIS:CSI16:1,2012-02-02T23:30:00Z,29.4012,-89.0355,1.0,30.189,11111222 
WAVCIS,ioos:station:WAVCIS:CSI16:1,2012-02-02T23:45:00Z,29.4012,-89.0355,1.0,30.274,11111222 
WAVCIS,ioos:station:WAVCIS:CSI16:1,2012-02-03T00:00:00Z,29.4012,-89.0355,1.0,30.309,11111222 
WAVCIS,ioos:station:WAVCIS:CSI16:1,2012-02-03T00:15:00Z,29.4012,-89.0355,1.0,30.297,11111222 
WAVCIS,ioos:station:WAVCIS:CSI16:1,2012-02-03T00:30:00Z,29.4012,-89.0355,1.0,30.221,11111222 
WAVCIS,ioos:station:WAVCIS:CSI16:1,2012-02-03T00:45:00Z,29.4012,-89.0355,1.0,30.249,11111222 
WAVCIS,ioos:station:WAVCIS:CSI16:1,2012-02-03T01:00:00Z,29.4012,-89.0355,1.0,30.295,11111222 
WAVCIS,ioos:station:WAVCIS:CSI16:1,2012-02-03T01:15:00Z,29.4012,-89.0355,1.0,30.183,11111222 
WAVCIS,ioos:station:WAVCIS:CSI16:1,2012-02-03T01:30:00Z,29.4012,-89.0355,1.0,30.191,11111222 
WAVCIS,ioos:station:WAVCIS:CSI16:1,2012-02-03T01:45:00Z,29.4012,-89.0355,1.0,29.568,11111222 
WAVCIS,ioos:station:WAVCIS:CSI16:1,2012-02-03T02:00:00Z,29.4012,-89.0355,1.0,29.185,11111222 
WAVCIS,ioos:station:WAVCIS:CSI16:1,2012-02-03T02:15:00Z,29.4012,-89.0355,1.0,29.32,11111222 
WAVCIS,ioos:station:WAVCIS:CSI16:1,2012-02-03T02:30:00Z,29.4012,-89.0355,1.0,29.452,11111222 
WAVCIS,ioos:station:WAVCIS:CSI16:1,2012-02-03T02:45:00Z,29.4012,-89.0355,1.0,29.268,11111222 
WAVCIS,ioos:station:WAVCIS:CSI16:1,2012-02-03T03:00:00Z,29.4012,-89.0355,1.0,29.546,11111222 
WAVCIS,ioos:station:WAVCIS:CSI16:1,2012-02-03T03:15:00Z,29.4012,-89.0355,1.0,29.494,11111222 
WAVCIS,ioos:station:WAVCIS:CSI16:1,2012-02-03T03:30:00Z,29.4012,-89.0355,1.0,29.517,11111222 
WAVCIS,ioos:station:WAVCIS:CSI16:1,2012-02-03T03:45:00Z,29.4012,-89.0355,1.0,29.398,11111222 
WAVCIS,ioos:station:WAVCIS:CSI16:1,2012-02-03T04:00:00Z,29.4012,-89.0355,1.0,29.352,11111222 
WAVCIS,ioos:station:WAVCIS:CSI16:1,2012-02-03T04:15:00Z,29.4012,-89.0355,1.0,29.348,11111222 
WAVCIS,ioos:station:WAVCIS:CSI16:1,2012-02-03T04:30:00Z,29.4012,-89.0355,1.0,29.365,11111222 
WAVCIS,ioos:station:WAVCIS:CSI16:1,2012-02-03T04:45:00Z,29.4012,-89.0355,1.0,29.484,11111222 
WAVCIS,ioos:station:WAVCIS:CSI16:1,2012-02-03T05:00:00Z,29.4012,-89.0355,1.0,29.568,11111222 
WAVCIS,ioos:station:WAVCIS:CSI16:1,2012-02-03T05:15:00Z,29.4012,-89.0355,1.0,29.486,11111222 
WAVCIS,ioos:station:WAVCIS:CSI16:1,2012-02-03T05:30:00Z,29.4012,-89.0355,1.0,29.335,11111222 
WAVCIS,ioos:station:WAVCIS:CSI16:1,2012-02-03T05:45:00Z,29.4012,-89.0355,1.0,29.37,11111222 
WAVCIS,ioos:station:WAVCIS:CSI16:1,2012-02-03T06:00:00Z,29.4012,-89.0355,1.0,29.252,11111222 
WAVCIS,ioos:station:WAVCIS:CSI16:1,2012-02-03T06:15:00Z,29.4012,-89.0355,1.0,29.307,11111222 
WAVCIS,ioos:station:WAVCIS:CSI16:1,2012-02-03T06:30:00Z,29.4012,-89.0355,1.0,29.316,11111222 
WAVCIS,ioos:station:WAVCIS:CSI16:1,2012-02-03T06:45:00Z,29.4012,-89.0355,1.0,29.247,11111222 
WAVCIS,ioos:station:WAVCIS:CSI16:1,2012-02-03T07:00:00Z,29.4012,-89.0355,1.0,29.367,11111222 
WAVCIS,ioos:station:WAVCIS:CSI16:1,2012-02-03T07:15:00Z,29.4012,-89.0355,1.0,29.477,11111222 
WAVCIS,ioos:station:WAVCIS:CSI16:1,2012-02-03T07:30:00Z,29.4012,-89.0355,1.0,29.384,11111222 
WAVCIS,ioos:station:WAVCIS:CSI16:1,2012-02-03T07:45:00Z,29.4012,-89.0355,1.0,29.43,11111222 
WAVCIS,ioos:station:WAVCIS:CSI16:1,2012-02-03T08:00:00Z,29.4012,-89.0355,1.0,29.222,11111222 
WAVCIS,ioos:station:WAVCIS:CSI16:1,2012-02-03T08:15:00Z,29.4012,-89.0355,1.0,29.086,11111222 
WAVCIS,ioos:station:WAVCIS:CSI16:1,2012-02-03T08:30:00Z,29.4012,-89.0355,1.0,29.211,11111222 
WAVCIS,ioos:station:WAVCIS:CSI16:1,2012-02-03T08:45:00Z,29.4012,-89.0355,1.0,29.133,11111222 
WAVCIS,ioos:station:WAVCIS:CSI16:1,2012-02-03T09:00:00Z,29.4012,-89.0355,1.0,29.056,11111222 
WAVCIS,ioos:station:WAVCIS:CSI16:1,2012-02-03T09:15:00Z,29.4012,-89.0355,1.0,28.996,11111222 
WAVCIS,ioos:station:WAVCIS:CSI16:1,2012-02-03T09:30:00Z,29.4012,-89.0355,1.0,28.925,11111222 
WAVCIS,ioos:station:WAVCIS:CSI16:1,2012-02-03T09:45:00Z,29.4012,-89.0355,1.0,28.405,11111222 
WAVCIS,ioos:station:WAVCIS:CSI16:1,2012-02-03T10:00:00Z,29.4012,-89.0355,1.0,28.062,11111222 
WAVCIS,ioos:station:WAVCIS:CSI16:1,2012-02-03T10:15:00Z,29.4012,-89.0355,1.0,27.883,11111222 
WAVCIS,ioos:station:WAVCIS:CSI16:1,2012-02-03T10:30:00Z,29.4012,-89.0355,1.0,27.845,11111222 
WAVCIS,ioos:station:WAVCIS:CSI16:1,2012-02-03T10:45:00Z,29.4012,-89.0355,1.0,27.863,11111222 
WAVCIS,ioos:station:WAVCIS:CSI16:1,2012-02-03T11:00:00Z,29.4012,-89.0355,1.0,28.014,11111222 
WAVCIS,ioos:station:WAVCIS:CSI16:1,2012-02-03T11:15:00Z,29.4012,-89.0355,1.0,28.105,11111222 
WAVCIS,ioos:station:WAVCIS:CSI16:1,2012-02-03T11:30:00Z,29.4012,-89.0355,1.0,28.265,11111222 
WAVCIS,ioos:station:WAVCIS:CSI16:1,2012-02-03T11:45:00Z,29.4012,-89.0355,1.0,28.298,11111222 
WAVCIS,ioos:station:WAVCIS:CSI16:1,2012-02-03T12:00:00Z,29.4012,-89.0355,1.0,28.406,11111222 
WAVCIS,ioos:station:WAVCIS:CSI16:1,2012-02-03T12:15:00Z,29.4012,-89.0355,1.0,28.354,11111222 
WAVCIS,ioos:station:WAVCIS:CSI16:1,2012-02-03T12:30:00Z,29.4012,-89.0355,1.0,28.327,11111222 
WAVCIS,ioos:station:WAVCIS:CSI16:1,2012-02-03T12:45:00Z,29.4012,-89.0355,1.0,28.324,11111222 
WAVCIS,ioos:station:WAVCIS:CSI16:1,2012-02-03T13:00:00Z,29.4012,-89.0355,1.0,28.254,11111222 
WAVCIS,ioos:station:WAVCIS:CSI16:1,2012-02-03T13:15:00Z,29.4012,-89.0355,1.0,28.264,11111222 
WAVCIS,ioos:station:WAVCIS:CSI16:1,2012-02-03T13:30:00Z,29.4012,-89.0355,1.0,28.335,11111222 
WAVCIS,ioos:station:WAVCIS:CSI16:1,2012-02-03T13:45:00Z,29.4012,-89.0355,1.0,28.298,11111222 
WAVCIS,ioos:station:WAVCIS:CSI16:1,2012-02-03T14:00:00Z,29.4012,-89.0355,1.0,28.299,11111222 
WAVCIS,ioos:station:WAVCIS:CSI16:1,2012-02-03T14:15:00Z,29.4012,-89.0355,1.0,28.256,11111222 
WAVCIS,ioos:station:WAVCIS:CSI16:1,2012-02-03T14:30:00Z,29.4012,-89.0355,1.0,28.427,11111222 
WAVCIS,ioos:station:WAVCIS:CSI16:1,2012-02-03T14:45:00Z,29.4012,-89.0355,1.0,27.926,11111222 
WAVCIS,ioos:station:WAVCIS:CSI16:1,2012-02-03T15:00:00Z,29.4012,-89.0355,1.0,27.799,11111222 
WAVCIS,ioos:station:WAVCIS:CSI16:1,2012-02-03T15:15:00Z,29.4012,-89.0355,1.0,27.622,11111222 